GFSMA_850_dewp_159.txt.gz
Dewpoint
13 13 12 13 13 13 12 12 11 9 11 11 8 1 -0 -1 -1 1 3 6 7 7 7 6 6 3 3 3 4 4 4 5 5 6 9 11 9 8 8 8 8 8 9
11 12 13 13 12 13 13 13 12 12 10 10 11 9 2 0 -0 -1 1 4 6 7 7 7 6 7 4 3 3 3 3 4 5 6 10 10 9 9 8 9 9 9 9
2 8 11 13 13 12 12 12 13 13 13 12 9 11 10 5 0 -0 -0 1 4 6 7 7 7 7 6 6 5 6 8 9 7 9 11 11 9 9 9 7 7 9 9
-9 -7 -1 8 12 13 13 13 12 12 13 13 13 11 12 11 8 2 1 -0 0 4 6 6 7 7 7 6 5 5 9 10 11 9 10 10 9 9 9 8 7 7 8
-6 -7 -9 -8 -1 9 12 13 13 13 13 12 13 12 12 13 11 10 5 2 1 1 2 5 6 6 6 7 5 5 3 5 7 10 10 10 9 9 9 9 7 7 8
-5 -5 -6 -7 -10 -8 2 11 12 13 13 13 13 13 12 12 13 12 11 7 6 2 3 4 6 7 7 7 6 6 4 3 4 6 8 8 9 9 10 9 8 7 7
-3 -4 -4 -5 -6 -7 -10 -6 8 11 12 13 13 13 13 13 12 12 12 10 10 9 5 5 5 5 6 7 7 7 6 5 4 5 6 6 6 8 9 9 9 8 6
-2 -3 -3 -3 -3 -4 -5 -8 -8 7 10 12 12 12 12 12 12 11 12 12 11 11 11 11 8 7 5 6 6 7 7 7 6 5 6 7 6 7 7 8 9 9 9
-2 -2 -2 -2 -2 -2 -3 -4 -7 -8 5 10 10 11 12 11 11 11 11 11 11 11 11 11 11 11 9 8 7 7 7 7 7 7 6 6 7 7 7 7 8 9 10
-1 -1 -0 -0 -0 -1 -1 -3 -4 -7 -7 3 10 11 10 11 11 11 11 11 10 10 10 10 10 11 11 10 9 9 9 8 8 8 8 8 7 7 7 8 7 9 9
3 3 3 2 1 1 0 -1 -1 -3 -6 -5 5 10 11 10 11 11 11 11 10 11 10 10 9 9 9 11 11 9 9 8 8 8 9 8 8 8 8 8 9 9 9
3 3 3 3 3 3 2 1 -1 -1 -3 -5 -4 5 10 11 10 11 11 10 10 10 9 9 10 10 9 10 9 10 10 10 8 8 8 9 8 8 8 8 9 9 9
2 3 3 3 3 3 2 2 1 0 -2 -3 -4 -4 2 6 9 10 10 10 10 10 9 9 9 9 8 9 9 10 9 9 10 9 8 8 9 9 9 8 8 8 9
2 2 3 3 3 3 3 2 2 0 -0 -2 -3 -4 -4 1 0 4 7 9 9 9 9 8 7 6 8 7 9 10 10 10 9 10 9 9 8 9 9 8 8 7 7
3 3 3 3 3 3 3 3 2 0 0 -2 -2 -0 1 -1 -2 -2 -1 2 4 7 6 6 6 5 5 7 8 9 8 8 9 9 10 9 9 9 8 6 6 8 8
3 2 2 4 4 4 4 3 2 1 -0 -1 -1 0 1 2 2 2 2 2 3 4 7 7 7 7 6 7 7 9 8 9 9 9 9 9 9 9 10 10 9 7 10
4 3 1 3 4 3 4 3 1 1 1 -1 -1 -1 -2 -1 1 3 4 5 5 5 6 7 6 6 6 4 6 7 9 10 9 8 8 10 9 8 9 10 10 9 9
5 5 3 1 2 3 3 2 1 2 2 2 5 5 4 4 4 4 4 4 4 4 4 5 5 5 5 5 5 8 8 9 9 9 9 9 10 9 10 10 9 9 9
5 6 5 2 0 2 2 1 1 2 2 2 2 2 2 1 0 -0 -2 -2 -3 -3 -2 3 4 4 2 1 5 5 7 8 9 9 9 9 10 10 10 10 9 9 8
6 6 6 5 4 2 1 1 0 0 -0 -0 -1 -1 -2 -1 -2 -1 -1 -0 1 3 3 4 2 2 3 2 3 5 5 6 6 8 7 9 9 10 10 9 9 8 8
4 4 4 5 5 5 5 4 4 3 3 2 2 2 2 2 2 3 5 4 5 4 4 6 7 6 6 6 5 5 7 7 7 7 8 8 9 9 9 9 8 8 7
4 4 4 4 4 3 3 3 3 2 2 2 2 2 2 2 2 3 3 4 4 4 4 6 5 6 6 4 6 7 7 7 8 7 8 8 8 8 8 8 8 7 7
3 3 3 3 3 4 4 3 3 3 3 3 3 3 3 4 4 4 5 4 5 5 5 5 5 5 5 5 6 6 6 7 6 6 6 6 6 6 6 6 5 6 6
1 2 2 3 3 3 3 3 3 4 4 4 4 4 4 4 4 4 4 4 4 4 4 5 4 3 4 4 5 5 5 3 4 4 4 4 3 3 2 2 2 2 4
-3 -4 -3 -1 1 2 3 3 3 3 4 4 4 4 3 3 3 3 3 4 3 3 3 3 2 2 1 2 2 2 2 2 2 2 2 2 2 2 1 1 1 0 -1
-8 -7 -7 -7 -8 -7 -3 -1 1 2 3 3 3 2 2 2 2 2 2 2 2 2 2 1 1 1 1 -0 -3 -0 -1 -0 -1 -5 -4 -3 -3 -3 -5 -5 -3 -4 -4

GFSMA_850_dewp_162.txt.gz
Dewpoint
13 13 13 13 13 13 13 13 12 13 12 11 12 12 9 4 5 8 8 4 5 6 6 7 11 10 4 3 4 4 4 4 5 5 6 9 10 9 8 7 8 8 9
5 10 12 13 13 13 13 13 13 13 12 12 12 13 12 10 3 3 7 7 2 5 6 6 7 10 11 10 4 3 3 3 4 5 6 9 10 10 9 8 8 9 9
-7 -4 2 8 11 13 13 13 13 13 13 13 13 13 13 13 11 6 1 1 5 2 3 5 6 7 8 10 10 11 10 9 9 8 8 10 11 11 9 9 8 7 9
-7 -8 -9 -6 1 8 13 13 12 13 13 13 13 13 13 13 12 12 10 4 2 3 2 4 4 6 7 7 9 10 11 11 11 11 10 10 11 10 9 9 9 7 7
-5 -5 -6 -7 -8 -7 -0 9 13 13 13 13 13 13 13 13 13 13 12 11 8 3 3 6 3 4 6 6 7 8 9 9 9 10 9 9 10 10 9 9 8 8 6
-4 -3 -4 -4 -5 -5 -6 -1 7 10 12 13 12 13 13 13 13 13 13 13 12 10 7 5 6 3 4 4 6 6 6 6 8 7 8 7 8 9 9 8 8 8 7
-2 -3 -2 -3 -3 -4 -4 -0 1 6 10 10 12 12 12 12 11 12 12 10 9 11 12 9 7 7 9 5 5 6 7 6 6 6 5 6 7 6 6 7 8 9 8
-2 -2 -2 -2 -2 -2 -2 -2 -0 2 3 8 10 12 12 12 12 11 10 11 8 8 9 11 11 7 9 9 7 6 7 8 8 7 7 6 6 6 7 7 7 8 8
2 -1 -1 -2 -2 -2 -2 -1 1 2 3 4 8 10 11 11 11 11 10 10 10 10 9 10 12 11 12 12 10 9 8 8 8 9 9 8 7 6 6 7 7 7 8
3 3 1 1 0 -0 0 -0 -1 -1 3 4 4 8 9 11 11 10 10 10 10 11 11 11 11 11 11 11 11 11 11 9 9 9 9 9 9 8 7 6 7 7 8
3 3 3 3 4 3 2 2 1 2 3 4 5 6 8 9 9 11 10 10 11 11 10 10 10 10 9 9 9 10 10 10 9 8 8 8 8 9 9 7 6 7 8
3 4 3 3 3 3 4 4 4 3 4 4 4 5 6 8 10 9 10 10 9 10 11 11 11 10 9 9 10 9 10 10 10 9 8 8 7 8 9 9 8 8 8
2 2 2 2 2 3 3 4 5 5 4 3 4 4 4 5 7 8 9 9 10 10 10 10 10 10 9 8 8 8 8 9 10 9 9 10 8 8 8 8 8 9 9
2 3 3 3 3 3 3 4 5 4 3 2 1 4 5 5 5 5 6 7 8 8 8 9 9 10 10 9 4 4 7 8 10 10 10 10 9 9 9 8 8 9 9
4 4 3 3 3 4 3 3 4 5 5 4 5 5 5 6 6 6 6 6 6 7 6 4 5 6 8 9 6 4 5 6 8 10 9 10 10 10 10 9 9 9 8
5 5 3 1 3 4 4 4 3 3 3 4 5 6 5 6 6 7 7 7 7 7 7 6 5 6 7 7 7 6 5 7 8 8 8 10 10 10 10 10 9 9 9
5 6 5 2 2 3 4 4 4 2 1 1 1 4 3 4 5 6 6 6 7 7 6 6 6 6 7 8 7 8 7 7 6 4 8 10 10 9 9 10 10 10 10
5 5 5 3 1 2 2 3 3 3 4 6 5 6 5 6 5 6 6 6 6 6 6 6 5 5 5 5 5 4 3 5 6 6 7 8 8 9 10 9 10 10 10
5 5 5 5 2 -1 1 1 1 1 2 3 3 4 3 3 3 2 2 3 4 5 4 5 4 5 5 5 5 5 3 0 3 4 5 6 7 9 9 10 9 10 10
4 4 4 4 5 4 2 -0 -0 -0 -0 -0 0 0 -0 -0 -1 -1 -0 3 5 5 6 6 6 6 6 5 6 5 3 1 2 5 6 6 7 8 8 9 9 9 10
3 4 3 3 4 4 4 4 3 3 3 2 2 2 2 2 2 2 2 2 3 4 5 6 6 5 5 5 5 6 4 3 5 7 7 8 7 7 7 8 8 8 8
3 3 3 3 4 4 3 2 2 2 2 2 2 2 2 2 2 2 2 2 2 3 3 4 5 5 5 5 5 5 4 4 5 6 6 6 6 5 5 5 6 6 6
1 2 2 3 3 3 3 3 3 3 4 3 3 3 3 4 4 4 4 4 4 4 4 4 4 4 4 3 3 4 4 4 4 4 4 4 3 5 4 3 4 4 4
-3 -2 -1 0 2 3 3 3 4 4 3 3 3 3 4 4 3 3 3 3 3 3 3 4 4 3 3 3 2 2 2 2 3 3 3 3 2 2 2 1 1 2 1
-6 -5 -5 -6 -5 -3 1 2 3 3 3 3 3 3 3 2 2 2 2 3 3 3 3 2 2 1 1 1 2 2 -1 0 1 2 2 2 1 1 1 1 0 0 1
-10 -9 -9 -8 -9 -10 -11 -10 -4 -1 -0 -2 -3 -6 -7 -8 -11 -10 -5 -0 1 1 1 1 1 -2 -6 -12 -14 -14 -14 -13 -11 -8 -6 -7 -6 -9 -7 -8 -6 -4 -4

GFSMA_850_dewp_165.txt.gz
Dewpoint
8 11 12 13 12 13 13 13 13 14 13 13 13 12 12 9 7 7 8 8 6 5 5 6 7 10 8 3 2 3 3 4 4 5 5 6 8 10 9 8 7 8 8
-6 1 8 11 12 13 13 13 13 13 13 13 13 13 12 12 11 7 7 8 7 4 3 5 6 6 8 9 7 3 2 3 4 4 5 6 7 10 10 9 9 8 8
-6 -8 -7 -2 7 10 11 13 13 13 13 13 12 13 13 13 12 12 9 7 7 5 2 2 4 6 7 7 9 9 9 9 9 9 8 8 8 11 11 10 8 8 6
-4 -4 -5 -6 -4 0 7 10 12 12 13 13 12 12 13 13 12 12 12 10 8 7 7 4 4 4 5 7 7 8 9 9 9 10 10 10 10 10 10 10 9 8 7
0 0 -1 -1 -1 -1 -0 2 7 10 12 13 12 13 12 12 12 13 13 13 12 10 8 8 7 6 6 6 6 7 7 7 8 9 8 9 9 9 10 10 9 9 8
2 2 1 1 0 -1 -1 -1 -1 4 8 10 12 13 12 12 12 12 13 13 13 13 11 11 9 7 5 5 5 6 6 6 5 5 7 6 7 8 8 9 9 9 8
2 1 2 2 2 2 2 1 1 1 1 6 9 10 11 12 11 12 13 11 12 12 12 12 8 9 11 9 6 8 6 6 6 6 4 5 5 5 6 6 6 6 6
3 3 4 3 3 2 2 2 2 2 1 1 5 10 11 10 11 11 11 10 10 10 10 11 10 11 10 10 9 7 9 8 7 7 5 4 5 6 6 6 6 6 6
2 4 5 5 4 3 3 3 3 3 3 2 2 5 8 9 9 10 10 10 10 11 11 11 10 10 9 9 10 10 10 9 9 8 8 7 5 4 7 7 6 6 6
2 3 5 5 5 4 4 4 4 4 4 4 3 2 6 8 10 9 9 11 11 10 11 12 11 11 11 11 11 11 11 12 12 10 9 8 7 5 4 5 7 6 6
4 5 5 5 5 5 5 5 5 5 4 4 5 5 4 4 6 9 9 9 9 10 10 11 11 10 10 10 10 9 9 10 11 11 11 10 9 9 8 6 5 6 6
3 3 2 2 2 2 3 4 4 4 5 5 5 4 5 6 7 8 9 9 9 7 8 10 9 10 11 11 10 9 9 9 9 10 9 10 10 9 8 8 8 8 7
4 4 4 4 3 2 2 3 3 4 5 5 5 5 4 5 6 6 7 8 9 9 8 9 9 9 10 9 10 10 9 8 8 8 8 9 9 10 10 9 8 8 8
4 5 5 5 4 4 3 3 3 3 5 5 5 5 5 4 5 5 5 6 6 7 7 8 8 8 8 8 9 9 8 5 3 5 7 9 10 10 10 10 10 9 9
4 5 5 5 4 4 3 4 3 3 5 5 5 5 5 5 4 5 6 6 6 7 6 5 4 4 5 6 7 8 6 5 4 2 3 6 9 10 10 10 10 11 9
5 5 5 5 3 4 4 3 4 4 4 4 4 4 4 5 5 6 7 6 6 7 8 7 6 6 5 6 6 4 4 5 6 6 4 3 4 7 8 9 10 10 10
5 5 5 5 4 3 4 5 4 4 4 4 4 4 4 5 5 5 5 5 5 6 6 6 5 6 6 6 6 6 7 7 6 5 5 5 4 5 7 8 8 10 9
4 5 5 5 4 1 2 4 4 4 4 5 5 5 5 6 6 6 6 6 6 6 7 7 6 5 4 4 3 4 4 5 5 4 3 3 2 2 5 7 7 8 8
4 4 4 4 5 4 1 1 1 2 2 3 3 3 4 4 4 4 4 4 3 2 3 4 4 3 5 5 6 5 3 2 4 4 6 6 5 4 6 6 7 8 8
3 4 4 4 5 5 5 4 2 1 1 0 0 0 0 1 1 0 -1 -1 1 3 4 5 5 5 5 5 5 4 3 3 4 4 3 3 4 6 7 7 7 7 7
3 3 3 4 4 4 4 4 4 4 4 4 4 3 3 3 2 2 2 3 3 3 4 6 5 4 5 5 4 4 5 4 4 4 3 4 5 5 6 5 4 4 5
-0 1 2 3 3 3 4 4 3 3 4 4 4 3 2 2 2 2 2 3 4 4 4 4 3 3 4 4 4 3 3 3 3 4 4 4 4 4 4 4 4 4 5
-4 -4 -3 -1 1 2 3 3 3 3 4 3 3 3 4 3 3 3 3 3 3 3 3 3 3 3 3 3 3 2 2 2 2 3 3 3 3 3 3 2 2 2 2
-6 -5 -6 -6 -6 -4 0 1 3 3 3 3 3 3 3 4 3 3 3 3 3 3 3 3 3 3 2 2 2 1 1 1 0 1 1 1 2 2 2 1 1 1 1
-11 -9 -9 -8 -9 -10 -10 -10 -4 1 2 3 3 2 2 1 1 0 0 2 2 2 2 2 2 1 1 -0 -5 -12 -13 -11 -9 -7 -5 -3 -2 -1 -4 -4 -3 -2 -1
-15 -14 -13 -12 -12 -11 -13 -14 -15 -12 -7 -5 -7 -9 -12 -15 -17 -17 -16 -11 -3 -6 -3 -4 -6 -13 -17 -18 -19 -19 -19 -18 -17 -13 -12 -14 -15 -14 -13 -8 -11 -14 -14

GFSMA_850_dewp_168.txt.gz
Dewpoint
-7 2 8 11 12 12 13 13 13 13 13 13 12 12 12 11 10 8 8 8 8 8 5 5 5 5 9 8 5 2 2 3 3 3 4 4 5 7 10 9 8 7 7
-5 -7 -5 6 8 10 11 13 13 13 13 13 13 12 12 12 12 11 8 7 7 8 7 3 3 5 6 9 9 8 6 3 1 2 3 4 4 6 9 11 11 10 9
-7 -6 -7 -8 -8 -1 4 7 10 12 13 13 13 12 12 12 12 12 12 11 8 6 7 5 3 2 5 5 6 9 10 9 9 8 8 6 7 6 9 10 10 10 8
-4 -2 -1 -2 -5 -7 -6 0 3 7 11 11 12 13 13 13 12 12 12 13 12 10 9 6 4 3 3 4 4 5 5 8 8 9 9 9 9 9 9 10 10 10 9
0 1 1 1 1 -0 -1 -2 -2 1 1 5 10 11 11 12 13 12 12 12 13 11 11 11 10 6 3 2 1 1 2 2 5 6 6 8 8 5 6 8 9 10 9
1 1 1 1 1 1 1 0 -1 -3 -2 1 3 8 9 10 12 11 11 12 12 13 12 12 11 11 9 6 8 7 1 -1 1 4 4 4 5 6 5 4 4 5 7
2 1 2 2 2 2 3 2 2 2 2 1 1 2 2 6 9 10 11 11 11 11 11 12 12 12 12 10 8 8 7 4 6 2 3 5 5 6 5 3 0 1 3
3 3 2 3 4 4 3 3 3 3 2 2 2 1 3 5 6 7 8 9 9 10 11 11 11 12 11 12 11 11 10 9 7 7 5 6 6 7 7 7 5 2 -0
2 2 2 3 4 4 4 3 3 4 4 3 3 3 4 6 6 8 8 9 10 10 10 10 10 11 11 10 10 10 9 9 9 10 9 9 8 8 7 7 7 6 5
2 3 3 4 5 5 4 4 3 4 4 4 4 3 3 4 5 7 8 9 9 11 11 10 10 9 10 10 10 10 9 10 10 10 10 10 10 10 9 8 7 7 6
4 3 4 3 3 2 3 4 5 5 4 5 5 5 5 3 3 3 7 3 5 7 9 8 8 8 8 10 10 10 10 10 9 10 10 10 11 11 11 10 9 9 8
3 3 4 4 4 4 2 2 2 2 2 3 4 4 5 5 5 6 6 6 7 5 6 7 9 10 10 10 9 9 9 9 9 10 9 10 10 10 9 10 10 10 9
3 4 4 4 5 4 4 3 2 3 3 3 4 5 4 5 5 5 6 7 7 7 8 6 7 8 8 8 8 8 8 9 9 8 7 6 8 9 8 9 10 10 10
5 4 4 5 5 4 3 3 3 3 3 3 4 5 5 4 4 5 5 5 5 5 5 6 6 6 7 7 7 7 8 7 6 4 3 3 4 6 8 8 8 10 10
5 5 5 5 5 4 3 4 2 3 3 3 4 5 5 4 4 3 4 5 6 6 6 5 5 5 5 5 6 6 7 7 7 6 4 3 4 4 3 5 8 10 10
6 6 6 5 5 4 4 4 4 3 4 4 4 4 4 4 4 4 4 5 6 6 7 6 4 5 4 3 4 5 5 4 4 7 6 3 1 1 3 3 5 5 6
4 5 5 5 6 5 4 4 4 4 4 4 4 4 4 3 5 5 5 6 5 5 5 6 6 4 6 6 5 5 6 5 5 4 4 5 4 3 3 3 3 3 6
4 4 4 5 5 5 3 1 3 4 4 4 4 5 6 6 6 5 5 5 6 6 7 6 5 4 3 1 1 2 2 3 5 4 2 3 3 4 5 4 3 3 4
4 4 4 4 4 4 4 4 2 1 2 2 3 3 4 4 4 4 4 4 4 3 2 2 2 2 4 5 6 6 5 3 3 3 5 5 4 3 2 0 0 2 6
3 2 3 4 4 4 3 4 3 4 3 2 1 0 0 0 0 0 1 1 2 2 3 4 5 4 4 3 4 5 3 2 3 3 3 3 4 3 3 3 5 5 5
-1 -2 -1 0 2 3 3 3 3 3 3 3 3 4 4 4 3 3 3 3 3 4 4 4 4 3 3 3 3 3 3 3 3 2 3 3 3 3 3 4 4 4 4
-7 -7 -7 -6 -3 -0 2 3 3 3 4 4 4 4 4 3 3 3 3 3 3 3 3 3 3 3 2 2 2 2 2 2 1 1 2 2 2 2 2 2 2 2 2
-10 -9 -8 -9 -9 -9 -3 -1 2 3 3 3 3 3 3 3 3 3 3 3 3 3 2 2 2 2 2 2 1 1 2 1 1 1 1 1 1 1 1 1 1 1 1
-15 -13 -12 -12 -12 -12 -12 -12 -12 -4 0 2 3 3 3 3 2 2 2 2 2 2 2 2 2 1 1 1 1 -1 -4 -10 -12 -7 -5 -3 -4 -4 -2 -0 -0 -2 -3
-16 -15 -15 -14 -14 -13 -13 -12 -13 -13 -10 -4 -4 -1 -3 -7 -8 -5 -8 -10 -6 -2 -1 -0 -0 -0 -1 -5 -15 -18 -19 -20 -20 -17 -17 -11 -15 -19 -20 -18 -13 -13 -17
-15 -15 -15 -15 -15 -15 -14 -14 -14 -16 -16 -15 -11 -11 -13 -14 -17 -19 -19 -19 -19 -16 -14 -11 -10 -15 -18 -19 -20 -21 -22 -23 -24 -20 -15 -21 -22 -20 -22 -19 -19 -21 -19

GFSMA_850_dewp_171.txt.gz
Dewpoint
-10 -9 -8 -2 3 6 10 12 13 13 13 13 13 12 12 12 11 11 10 8 9 9 9 8 6 5 4 4 5 3 2 2 2 2 2 3 4 5 6 9 9 8 9
-9 -7 -8 -9 -6 3 6 6 7 10 12 13 13 13 13 12 12 12 11 10 9 7 7 8 8 5 5 6 8 8 7 5 5 3 2 2 3 3 5 8 10 11 11
-7 -6 -4 -4 -6 -7 -7 -4 0 2 4 8 12 12 13 12 12 12 12 12 11 11 9 7 7 6 4 4 7 8 8 9 8 8 8 6 6 5 5 6 9 10 10
-2 -2 -2 -2 -2 -1 -1 -3 -5 -5 -2 -2 -1 7 11 12 11 12 12 12 12 12 12 11 9 7 4 3 3 4 4 6 5 3 3 7 8 7 6 7 7 9 9
2 1 1 0 0 1 1 0 0 0 -0 -2 -2 -3 -5 0 10 10 11 12 12 12 12 11 11 11 11 7 2 2 3 4 5 5 3 3 3 4 6 6 6 7 8
1 2 2 2 1 1 1 1 1 1 1 1 -0 -1 -3 -4 -1 6 9 10 10 12 12 12 11 11 10 11 10 3 4 5 5 3 4 4 4 3 4 5 6 6 7
-4 -4 -3 1 1 1 2 2 2 3 3 2 2 1 2 0 -1 -0 -2 6 8 10 10 11 11 11 12 12 11 10 7 9 9 7 4 7 6 6 6 5 5 5 5
-1 -1 2 2 2 3 2 3 4 3 3 3 3 4 3 1 -1 -4 -3 -3 4 7 8 10 11 11 11 12 11 11 11 11 11 9 8 9 8 7 7 7 7 6 5
1 2 2 2 2 4 4 4 4 4 4 3 3 4 5 4 5 6 8 7 7 7 8 10 10 11 11 12 12 11 11 11 11 10 10 10 9 10 9 8 9 8 7
2 2 2 3 3 3 3 2 2 4 5 4 4 4 4 4 5 5 -0 3 8 8 10 11 11 10 9 8 9 10 10 10 10 10 10 11 10 10 10 10 10 10 9
2 4 5 4 4 4 4 4 3 3 2 4 4 4 4 4 4 4 4 2 2 3 3 2 6 7 7 6 8 9 9 10 10 10 10 10 10 11 11 11 11 11 12
3 3 3 4 4 4 4 4 3 3 2 2 3 2 3 4 4 3 4 5 6 6 7 8 8 8 7 9 8 8 8 8 8 8 9 9 9 9 9 10 10 9 9
3 2 3 4 4 4 5 3 3 3 3 3 3 3 3 3 4 4 5 5 5 5 6 6 7 7 6 7 7 8 6 7 6 7 7 6 5 5 5 5 6 7 7
4 4 4 5 5 4 5 2 3 3 3 3 3 4 5 5 4 4 4 4 5 3 3 2 2 3 4 7 7 8 8 7 8 8 7 5 5 3 2 2 3 4 6
4 4 5 5 4 4 4 2 3 3 3 4 4 4 4 4 4 5 4 4 5 5 5 4 4 4 5 5 6 5 5 6 7 7 7 5 4 4 4 3 3 3 3
3 4 5 5 5 5 5 3 2 3 3 3 3 4 4 4 4 4 4 5 4 5 6 6 5 4 3 3 4 4 5 5 5 5 5 4 3 1 -3 -3 -1 -1 -2
3 4 4 4 5 5 5 4 1 3 3 3 3 4 4 4 5 5 5 5 5 6 6 4 5 5 5 6 6 6 5 5 5 4 2 2 3 2 1 1 1 1 1
3 3 3 4 4 4 4 4 3 1 2 2 2 3 4 5 5 6 4 5 5 4 5 5 6 5 4 3 2 1 1 4 5 5 5 3 1 3 4 4 3 2 1
1 1 1 1 3 4 3 3 4 3 2 1 1 1 1 2 3 4 4 4 4 4 5 4 2 1 1 3 4 5 5 5 4 3 2 3 3 3 3 3 2 3 4
-5 -5 -4 -3 -3 -1 2 4 3 3 3 3 3 3 3 2 0 -1 -0 0 0 0 1 1 2 3 4 3 3 3 3 2 2 3 2 2 3 3 3 3 3 3 3
-9 -8 -8 -6 -5 -5 -2 1 3 3 3 4 4 4 4 3 3 2 2 2 3 3 4 3 3 3 3 3 2 2 2 2 2 2 1 2 1 1 1 2 2 2 2
-12 -12 -11 -9 -9 -9 -8 -5 -2 2 3 3 3 3 3 3 3 3 3 3 2 3 3 2 2 2 2 2 2 1 1 1 1 1 1 1 1 1 1 1 1 1 2
-15 -15 -13 -12 -11 -11 -11 -10 -11 -9 -1 2 2 2 2 2 2 2 3 2 2 2 2 2 2 2 1 1 1 1 1 -0 -1 -4 -9 -19 -14 -8 -6 -5 -4 -2 -2
-16 -16 -16 -15 -15 -14 -14 -13 -12 -12 -10 -5 -4 -0 1 1 -0 -0 0 -1 -2 -2 1 1 1 0 0 -1 -1 -3 -10 -18 -20 -21 -21 -22 -19 -17 -18 -17 -16 -13 -13
-15 -16 -16 -16 -16 -16 -15 -15 -14 -13 -15 -15 -15 -14 -6 -9 -12 -15 -15 -16 -17 -15 -12 -8 -6 -10 -5 -10 -18 -20 -21 -22 -23 -21 -23 -19 -22 -25 -25 -24 -16 -17 -20
-13 -12 -13 -13 -14 -15 -15 -15 -15 -14 -15 -16 -16 -16 -16 -14 -16 -18 -20 -20 -20 -20 -20 -19 -18 -18 -19 -20 -21 -22 -23 -24 -25 -24 -19 -21 -22 -22 -23 -22 -21 -22 -20

GFSMA_850_dewp_174.txt.gz
Dewpoint
-12 -11 -11 -10 -8 -5 1 4 8 11 11 11 12 13 13 13 13 12 11 11 10 8 9 9 9 9 7 4 4 4 3 2 2 2 2 2 3 3 4 6 8 9 9
-9 -9 -9 -9 -9 -8 -7 -4 1 4 4 4 7 10 11 12 12 13 12 12 11 10 9 8 8 8 8 6 4 5 8 6 4 3 2 1 1 2 3 4 6 9 10
-3 -4 -5 -5 -5 -6 -5 -5 -7 -7 -5 -4 -1 1 4 9 11 12 12 12 12 11 10 10 10 9 7 7 4 6 8 8 8 8 8 8 7 5 2 3 5 6 9
1 1 1 -0 -1 -1 -1 -1 -1 -1 -2 -4 -5 -4 -2 -1 -0 4 10 12 11 12 11 10 11 11 10 9 5 2 3 8 9 9 8 9 9 9 8 6 6 7 7
-2 -1 0 1 1 1 1 1 1 1 1 0 -0 -2 -3 -3 -4 -5 -5 5 10 11 12 12 11 10 11 11 11 10 5 3 6 7 7 6 6 7 6 6 7 7 6
-9 -6 -4 -2 -2 -2 -1 0 1 1 2 2 2 2 1 -0 -1 -1 -2 -4 -1 8 9 11 12 12 11 10 11 11 11 7 6 6 7 8 5 5 6 6 5 6 6
2 -0 -3 -3 1 1 2 2 3 3 3 3 3 3 2 2 1 0 -1 -4 -5 -6 -1 7 9 10 11 10 10 11 11 11 9 6 8 10 9 6 5 8 7 6 6
2 2 -0 2 2 0 1 2 3 3 3 3 4 4 4 3 2 2 4 6 5 1 -1 5 7 9 10 10 11 10 11 11 10 9 8 11 9 6 8 9 9 7 6
2 2 2 2 1 2 3 3 3 2 2 3 5 5 5 4 4 3 2 2 2 8 8 8 6 6 10 10 10 12 11 11 10 10 10 11 11 10 10 10 10 10 9
2 2 2 3 4 4 4 3 3 3 4 3 2 2 4 4 5 5 3 2 1 2 3 5 5 9 10 10 9 9 9 10 11 11 11 11 10 10 11 11 10 10 9
2 3 4 4 4 4 4 4 3 2 3 2 2 2 2 2 2 3 5 3 3 3 5 5 6 5 7 7 7 7 8 9 10 10 10 10 10 11 11 11 12 12 12
2 3 3 4 4 4 4 4 1 2 2 2 3 3 3 3 3 3 4 4 3 4 4 4 6 8 7 8 8 7 7 8 9 9 8 9 9 9 8 7 7 7 7
4 3 4 3 4 4 5 4 0 3 2 3 3 3 3 4 5 5 5 4 3 3 3 1 1 4 6 6 7 7 8 8 7 7 7 8 8 7 6 4 2 2 2
4 3 3 4 5 4 4 4 0 3 3 3 4 4 3 4 5 5 5 4 4 5 3 2 2 3 5 5 6 7 7 8 8 8 8 8 7 6 5 4 3 2 2
3 2 2 2 4 4 4 5 2 2 3 3 3 3 4 3 3 4 5 5 5 6 4 3 5 6 6 6 6 5 5 5 7 7 6 6 5 5 4 2 1 -1 -2
2 2 2 3 3 4 4 4 4 2 2 3 2 3 5 4 4 3 3 5 5 5 5 4 6 5 6 5 5 5 5 5 5 5 5 5 5 4 1 -1 -2 -2 -2
2 1 1 1 2 4 4 4 4 3 1 1 1 3 4 5 5 5 4 5 5 5 5 5 4 6 6 6 6 6 5 4 4 4 3 2 1 1 2 0 -0 1 2
-1 -2 -4 -6 -4 2 3 4 3 3 2 1 1 1 2 2 4 5 6 5 4 5 5 4 4 5 4 3 3 2 2 2 3 3 3 4 3 2 0 0 1 1 2
-6 -7 -8 -8 -7 -6 -1 2 3 3 3 4 3 2 1 0 1 1 2 3 4 4 4 4 4 4 3 2 3 4 3 3 3 3 2 1 2 2 2 2 2 2 3
-12 -11 -10 -10 -10 -8 -7 -3 1 3 3 3 3 3 4 4 3 3 1 1 1 1 1 1 2 2 3 3 3 3 2 2 2 2 2 2 1 2 2 1 1 1 1
-14 -14 -13 -12 -11 -11 -11 -9 -8 -2 2 3 3 3 3 3 2 2 3 3 3 3 3 3 3 3 3 2 2 2 2 1 1 1 1 1 1 0 0 0 -0 -1 0
-16 -16 -15 -15 -14 -13 -12 -10 -11 -11 -10 -5 0 2 2 2 2 2 2 2 2 2 2 2 1 1 2 1 2 1 1 1 0 -1 -3 -7 -13 -19 -13 -9 -11 -18 -17
-17 -17 -17 -16 -15 -15 -13 -13 -11 -11 -11 -9 -5 -6 -1 1 2 2 2 2 2 1 0 2 1 1 1 0 0 -0 1 -1 -6 -14 -21 -22 -22 -20 -19 -17 -16 -16 -19
-15 -16 -16 -16 -16 -16 -15 -14 -14 -13 -13 -13 -12 -9 -9 -6 -0 -6 -7 -4 -5 -10 -8 -6 -4 -3 -2 -3 -2 -8 -15 -20 -22 -23 -23 -23 -22 -21 -23 -25 -24 -20 -16
-12 -13 -13 -14 -14 -15 -14 -14 -14 -14 -14 -13 -14 -15 -15 -12 -11 -13 -16 -17 -15 -15 -16 -16 -13 -16 -16 -15 -17 -20 -21 -22 -24 -24 -23 -23 -21 -22 -23 -23 -22 -20 -24
-9 -9 -10 -11 -11 -12 -12 -12 -12 -13 -14 -14 -13 -15 -16 -15 -13 -13 -16 -19 -18 -17 -17 -17 -19 -19 -19 -20 -21 -21 -22 -23 -24 -24 -20 -20 -22 -22 -23 -21 -20 -21 -21